Farmington, NM

12:27 PM MDT on October 22, 2017 (GMT -0600)
Four Corners Regional

Weather History for KFMN - August, 2013

Change the Weather History Date:

Thursday, August 15, 2013

  Actual Average Record
Temperature  
Mean Temperature 76 °F -  
Max Temperature 95 °F 87 °F 97 °F (2002)
Min Temperature 57 °F 58 °F 48 °F (1978)
Cooling Degree Days 11    
Growing Degree Days 26 (Base 50)    
Moisture  
Dew Point 31 °F    
Average Humidity 23    
Maximum Humidity 45    
Minimum Humidity 4    
Precipitation  
Precipitation 0.00 in - - ()
Sea Level Pressure  
Sea Level Pressure 29.99 in    
Wind  
Wind Speed 6 mph (ENE)    
Max Wind Speed 10 mph    
Max Gust Speed 18 mph    
Visibility 10 miles    
Events      
Averages and records for this station are not official NWS values.
T = Trace of Precipitation, MM = Missing Value Source: NWS Daily Summary

Daily Weather History Graph

Daily Weather History Graph

Search for Another Location

Airport or City:

Trip Planner

Search our weather history database for the weather conditions in past years. The results will help you decide how hot, cold, wet, or windy it might be!

Date:

Astronomy

Aug. 15, 2013 Rise Set
Actual Time 6:30 AM MDT 8:03 PM MDT
Civil Twilight 6:02 AM MDT 8:31 PM MDT
Nautical Twilight 5:29 AM MDT 9:03 PM MDT
Astronomical Twilight 4:54 AM MDT 9:38 PM MDT
Moon 3:21 PM MDT (8/15) 12:44 AM MDT (8/15)
Length of Visible Light 14h 28m
Length of Day
13h 33m
Waxing Gibbous, 65% of the Moon is Illuminated
Aug 15
Waxing Gibbous
Aug 20
Full
Aug 28
Last Quarter
Sep 5
New
Sep 12
First Quarter

Hourly Weather History & Observations

Time (MDT) Temp. Dew Point Humidity Pressure Visibility Wind Dir Wind Speed Gust Speed Precip Events Conditions
12:53 AM 66.9 °F 36.0 °F 32% 29.97 in 10.0 mi ENE 5.8 mph - N/A   Clear
1:53 AM 66.0 °F 36.0 °F 33% 29.96 in 10.0 mi ENE 6.9 mph - N/A   Clear
2:53 AM 63.0 °F 36.0 °F 37% 29.99 in 10.0 mi East 4.6 mph - N/A   Clear
3:53 AM 63.0 °F 35.1 °F 35% 29.99 in 10.0 mi ENE 6.9 mph - N/A   Clear
4:53 AM 59.0 °F 36.0 °F 42% 29.99 in 10.0 mi ENE 4.6 mph - N/A   Clear
5:53 AM 57.0 °F 36.0 °F 45% 30.02 in 10.0 mi NE 5.8 mph - N/A   Clear
6:53 AM 57.0 °F 36.0 °F 45% 30.04 in 10.0 mi ENE 6.9 mph - N/A   Clear
7:53 AM 62.1 °F 37.0 °F 39% 30.06 in 10.0 mi East 5.8 mph - N/A   Clear
8:53 AM 66.9 °F 39.0 °F 36% 30.08 in 10.0 mi ESE 8.1 mph - N/A   Clear
9:53 AM 75.9 °F 42.1 °F 30% 30.06 in 10.0 mi ESE 8.1 mph - N/A   Clear
10:53 AM 79.0 °F 43.0 °F 28% 30.06 in 10.0 mi East 6.9 mph - N/A   Clear
11:53 AM 82.9 °F 42.1 °F 24% 30.04 in 10.0 mi Variable 3.5 mph - N/A   Clear
12:53 PM 89.1 °F 39.9 °F 18% 30.01 in 10.0 mi Calm Calm - N/A   Clear
1:53 PM 91.0 °F 30.9 °F 12% 29.98 in 10.0 mi Variable 4.6 mph - N/A   Clear
2:53 PM 93.0 °F 25.0 °F 9% 29.96 in 10.0 mi WNW 10.4 mph - N/A   Clear
3:53 PM 93.0 °F 21.0 °F 7% 29.94 in 10.0 mi Calm Calm - N/A   Clear
4:53 PM 93.9 °F 19.9 °F 7% 29.93 in 10.0 mi WSW 9.2 mph 18.4 mph N/A   Clear
5:53 PM 93.0 °F 18.0 °F 6% 29.94 in 10.0 mi West 10.4 mph 18.4 mph N/A   Clear
6:53 PM 91.0 °F 19.0 °F 7% 29.94 in 10.0 mi West 8.1 mph - N/A   Clear
7:53 PM 87.1 °F 19.9 °F 8% 29.94 in 10.0 mi WNW 8.1 mph - N/A   Clear
8:53 PM 80.1 °F 19.0 °F 10% 29.96 in 10.0 mi West 4.6 mph - N/A   Clear
9:53 PM 80.1 °F 21.9 °F 12% 29.96 in 10.0 mi WSW 3.5 mph - N/A   Clear
11:53 PM 71.1 °F 34.0 °F 26% 30.00 in 10.0 mi Calm Calm - N/A   Clear